User: anonymous   Login
Location: Waning Moon II Observatory
(30.3730°N, 89.7620°W)
Time: 19:49:58
(UTC-05:00)
Language:

Cosmos 1825 Rocket - Orbit

View from above orbital plane
View from above orbital plane
View from above satellite
View from above satellite

Ground track
Ground track

The orbit data is extracted from the following two-line orbital elements,

1 17567U 87024B   17207.23714988 +.00000058 +00000-0 +40646-5 0  9994
2 17567 082.5301 162.4843 0018268 213.5953 146.4106 14.83659457621179
Epoch (UTC): 26 July 2017 05:41:29
Eccentricity: 0.0018268
inclination: 82.5301°
perigee height: 605 km
apogee height: 630 km
right ascension of ascending node: 162.4843°
argument of perigee: 213.5953°
revolutions per day: 14.83659457
mean anomaly at epoch: 146.4106°
orbit number at epoch: 62117

The dashed part of the orbit path shows where the satellite is in the earth's shadow,  

DLR